{"data":{"norad_id":45673,"epoch":"2026-05-24T22:53:03.895584Z","epoch_age_seconds":78296,"freshness":"FRESH","line1":"1 45673U 20035S   26144.95351731  .00086616  00000+0  91721-3 0  9995","line2":"2 45673  53.0420  36.6310 0005924 101.7094 258.4585 15.63410733330907","mean_motion":15.63410733,"eccentricity":0.0005924,"inclination_deg":53.042,"raan_deg":36.631,"arg_perigee_deg":101.7094,"mean_anomaly_deg":258.4585,"bstar":0.00091721,"rev_number":33090,"period_min":92.106314073769,"perigee_km":373.8111146414,"apogee_km":381.81556460379,"semimajor_km":6755.9503396226,"source":"CELESTRAK","updated_at":"2026-05-25T13:38:16.427817Z"}}